Amateur Radio Satellites - All Passes

Search period start: 23 May 2013 22:44
Search period end: 24 May 2013 22:44
Location: Yellowknife, 62.4500°N, 114.3500°W

Satellite Date Start Highest point End Downlink Frequencies (MHz)
Time Altitude Azimuth
Oscar 11 23 May 22:44:19 22:48:32 50° 259° (W) 22:52:48 145.825 FM, Beacon 2401.500 USB
STRAND 1 23 May 22:49:47 22:53:50 24° 317° (NW) 22:57:54 ?
OPAL 23 May 23:43:22 23:48:00 32° 263° (W) 23:52:36 ?
RS-15 23 May 23:46:38 23:58:11 90° 205° (SSW) 00:09:13 29.354 - 29.394 USB, Beacon 29.352 USB
JAS-2 23 May 23:58:10 00:05:00 32° 275° (W) 00:11:42 435.800 - 435.900 CW/SSB, 435.910 FM
KITSAT 1 24 May 00:13:30 00:20:56 42° 122° (ESE) 00:28:24 435.175 FM
Oscar 11 24 May 00:24:20 00:25:51 12° 281° (W) 00:27:23 145.825 FM, Beacon 2401.500 USB
HO-68 24 May 00:28:51 00:32:58 16° 285° (WNW) 00:37:06 435.675 MHz FM
STRAND 1 24 May 00:29:41 00:31:33 12° 341° (NNW) 00:33:25 ?
AO-40 24 May 01:12:12 04:45:33 18° 162° (SSE) 07:38:07 Beacon 2401.320
JAS-2 24 May 01:52:06 01:52:43 10° 300° (WNW) 01:53:20 435.800 - 435.900 CW/SSB, 435.910 FM
RS-15 24 May 01:59:12 02:09:56 53° 235° (SW) 02:20:19 29.354 - 29.394 USB, Beacon 29.352 USB
Oscar 16 24 May 02:06:52 02:10:25 18° 83° (E) 02:13:55 437.025 USB, Beacon 2401.1428
KITSAT 1 24 May 02:07:38 02:15:46 86° 147° (SSE) 02:23:57 435.175 FM
AO-27 24 May 02:19:00 02:22:27 17° 82° (E) 02:25:53 436.795 MHz FM
ITAMSAT 1 24 May 02:25:13 02:28:52 19° 83° (E) 02:32:29 435.822 SSB
MaSat-1 24 May 02:35:00 02:40:23 30° 118° (ESE) 02:44:49 437.345 MHz
AO-Echo 24 May 03:00:06 03:02:34 14° 80° (E) 03:05:01 ?
Uribyol 2 24 May 03:05:31 03:10:14 32° 93° (E) 03:14:56 436.500 FM
Oscar 19 24 May 03:06:00 03:10:47 36° 94° (E) 03:15:32 437.125 CW, 437.150 USB
STRAND 1 24 May 03:43:17 03:46:13 16° 29° (NNE) 03:49:08 ?
Oscar 16 24 May 03:45:35 03:50:48 67° 105° (ESE) 03:55:58 437.025 USB, Beacon 2401.1428
AO-27 24 May 03:57:49 04:03:03 64° 104° (ESE) 04:08:15 436.795 MHz FM
AO-7 24 May 04:00:57 04:02:28 11° 64° (ENE) 04:03:59 29.400 - 29.500 MHz
KITSAT 1 24 May 04:03:33 04:11:40 70° 355° (N) 04:19:50 435.175 FM
ITAMSAT 1 24 May 04:04:07 04:09:22 69° 106° (ESE) 04:14:36 435.822 SSB
TMSAT-1 24 May 04:07:58 04:11:17 16° 80° (E) 04:14:36 436.925 FM
RS-15 24 May 04:12:09 04:19:32 21° 263° (W) 04:26:49 29.354 - 29.394 USB, Beacon 29.352 USB
MaSat-1 24 May 04:16:03 04:22:13 85° 136° (SE) 04:26:58 437.345 MHz
Gurwin Techsat 1B 24 May 04:30:07 04:34:42 28° 90° (E) 04:39:15 435.225 FM
Uosat F 24 May 04:31:48 04:36:14 30° 93° (E) 04:40:39 435.120 FM
AO-Echo 24 May 04:37:47 04:42:27 56° 102° (ESE) 04:47:10 ?
Uribyol 2 24 May 04:44:57 04:50:12 71° 295° (WNW) 04:55:25 436.500 FM
Oscar 19 24 May 04:45:22 04:50:31 64° 297° (WNW) 04:55:38 437.125 CW, 437.150 USB
ISS 24 May 05:18:28 05:19:37 11° 165° (SSE) 05:20:47 145.800 FM
STRAND 1 24 May 05:19:37 05:24:16 37° 52° (NE) 05:28:57 ?
Oscar 16 24 May 05:25:15 05:30:01 37° 307° (NW) 05:34:44 437.025 USB, Beacon 2401.1428
AO-27 24 May 05:37:37 05:42:27 39° 307° (NW) 05:47:17 436.795 MHz FM
ITAMSAT 1 24 May 05:43:56 05:48:42 37° 308° (NW) 05:53:28 435.822 SSB
TMSAT-1 24 May 05:47:06 05:52:23 60° 103° (ESE) 05:57:39 436.925 FM
Oscar 10/S400 24 May 05:49:49 10:21:54 46° 207° (SSW) 15:30:37 145.825 - 145.975 CW/USB, Beacon 145.810 USB
AO-7 24 May 05:50:55 05:58:24 34° 91° (E) 06:05:51 29.400 - 29.500 MHz
MaSat-1 24 May 05:59:15 06:04:41 45° 337° (NNW) 06:08:54 437.345 MHz
KITSAT 1 24 May 05:59:36 06:07:47 80° 22° (NNE) 06:15:58 435.175 FM
Gurwin Techsat 1B 24 May 06:09:57 06:15:18 82° 292° (WNW) 06:20:38 435.225 FM
Uosat F 24 May 06:10:30 06:15:33 73° 294° (WNW) 06:20:34 435.120 FM
AO-Echo 24 May 06:16:51 06:21:13 38° 304° (NW) 06:25:37 ?
Uribyol 2 24 May 06:24:53 06:29:03 25° 317° (NW) 06:33:13 436.500 FM
Oscar 19 24 May 06:25:12 06:29:10 23° 319° (NW) 06:33:06 437.125 CW, 437.150 USB
ISS 24 May 06:53:38 06:55:20 13° 185° (S) 06:57:03 145.800 FM
STRAND 1 24 May 06:58:13 07:03:18 67° 255° (WSW) 07:08:26 ?
Oscar 16 24 May 07:05:12 07:08:13 16° 330° (NNW) 07:11:14 437.025 USB, Beacon 2401.1428
Saudisat 1A 24 May 07:06:57 07:10:58 30° 130° (SE) 07:15:00 436.775 MHz
AO-27 24 May 07:17:43 07:20:52 16° 329° (NNW) 07:24:02 436.795 MHz FM
Sapphire 24 May 07:23:42 07:26:27 14° 106° (ESE) 07:29:13 437.095 MHz 1200 baud AX-25 AFSK
ITAMSAT 1 24 May 07:24:01 07:27:03 16° 331° (NNW) 07:30:06 435.822 SSB
TMSAT-1 24 May 07:27:17 07:32:16 42° 305° (NW) 07:37:14 436.925 FM
MaSat-1 24 May 07:42:59 07:47:36 34° 1° (N) 07:51:15 437.345 MHz
AO-7 24 May 07:43:54 07:52:20 86° 116° (ESE) 08:00:45 29.400 - 29.500 MHz
Uosat F 24 May 07:49:47 07:53:46 24° 317° (NW) 07:57:46 435.120 FM
Gurwin Techsat 1B 24 May 07:50:20 07:54:47 28° 314° (NW) 07:59:13 435.225 FM
KITSAT 1 24 May 07:55:11 08:03:07 59° 228° (SW) 08:11:02 435.175 FM
AO-Echo 24 May 07:56:30 07:59:00 14° 327° (NNW) 08:01:30 ?
SO-67 24 May 08:02:23 08:03:20 11° 81° (E) 08:04:16 435.3500 MHz FM
Uribyol 2 24 May 08:05:00 08:07:03 12° 341° (NNW) 08:09:06 436.500 FM
Oscar 19 24 May 08:05:17 08:06:57 12° 343° (NNW) 08:08:37 437.125 CW, 437.150 USB
JAS-1B 24 May 08:17:35 08:22:40 24° 82° (E) 08:27:18 435.800 - 435.900 CW/SSB
Hamsat 24 May 08:18:59 08:22:59 34° 95° (E) 08:27:00 145.90 MHz
PCSat 24 May 08:31:02 08:35:50 33° 122° (ESE) 08:40:40 145.825 MHz
STRAND 1 24 May 08:40:04 08:43:31 18° 277° (W) 08:46:59 ?
Saudisat 1A 24 May 08:45:39 08:50:17 79° 152° (SSE) 08:54:55 436.775 MHz
SO-50 24 May 08:57:44 09:00:01 14° 115° (ESE) 09:02:18 436.795 FM
AO-27 24 May 08:57:55 08:58:36 10° 354° (N) 08:59:17 436.795 MHz FM
Sapphire 24 May 09:03:34 09:08:43 46° 129° (SE) 09:13:53 437.095 MHz 1200 baud AX-25 AFSK
ITAMSAT 1 24 May 09:04:13 09:04:44 10° 355° (N) 09:05:15 435.822 SSB
TMSAT-1 24 May 09:07:46 09:11:07 17° 328° (NNW) 09:14:28 436.925 FM
JAS-2 24 May 09:10:44 09:14:03 14° 66° (ENE) 09:17:12 435.800 - 435.900 CW/SSB, 435.910 FM
MaSat-1 24 May 09:25:59 09:30:28 52° 28° (NNE) 09:33:54 437.345 MHz
Uosat F 24 May 09:29:24 09:31:08 12° 340° (NNW) 09:32:52 435.120 FM
Gurwin Techsat 1B 24 May 09:30:54 09:33:19 13° 338° (NNW) 09:35:45 435.225 FM
SO-67 24 May 09:34:02 09:37:37 58° 102° (ESE) 09:41:10 435.3500 MHz FM
AO-7 24 May 09:36:55 09:44:42 46° 321° (NW) 09:52:30 29.400 - 29.500 MHz
Uribyol 2 24 May 09:43:57 09:44:35 10° 5° (N) 09:45:12 436.500 FM
KITSAT 1 24 May 09:51:04 09:57:05 24° 253° (WSW) 10:03:06 435.175 FM
HO-68 24 May 09:51:36 09:57:10 24° 84° (E) 10:02:43 435.675 MHz FM
Hamsat 24 May 09:55:03 09:59:18 53° 296° (WNW) 10:03:34 145.90 MHz
JAS-1B 24 May 10:08:00 10:14:37 82° 109° (ESE) 10:20:26 435.800 - 435.900 CW/SSB
PCSat 24 May 10:13:24 10:18:51 87° 145° (SE) 10:24:20 145.825 MHz
Oscar 16 24 May 10:21:17 10:23:09 12° 19° (NNE) 10:25:01 437.025 USB, Beacon 2401.1428
Oscar 11 24 May 10:21:47 10:24:41 17° 85° (E) 10:27:35 145.825 FM, Beacon 2401.500 USB
Saudisat 1A 24 May 10:25:34 10:30:11 68° 355° (N) 10:34:47 436.775 MHz
AO-27 24 May 10:34:13 10:36:10 12° 18° (NNE) 10:38:06 436.795 MHz FM
SO-50 24 May 10:35:11 10:39:40 43° 137° (SE) 10:44:05 436.795 FM
ITAMSAT 1 24 May 10:40:14 10:42:18 12° 19° (NNE) 10:44:21 435.822 SSB
Sapphire 24 May 10:46:34 10:52:01 77° 332° (NNW) 10:57:30 437.095 MHz 1200 baud AX-25 AFSK
TMSAT-1 24 May 10:48:19 10:49:14 10° 352° (N) 10:50:10 436.925 FM
JAS-2 24 May 10:54:32 11:01:24 42° 92° (E) 11:07:31 435.800 - 435.900 CW/SSB, 435.910 FM
SO-67 24 May 11:07:51 11:10:53 26° 303° (WNW) 11:13:55 435.3500 MHz FM
MaSat-1 24 May 11:08:31 11:12:27 42° 237° (WSW) 11:15:32 437.345 MHz
Gurwin Techsat 1B 24 May 11:10:46 11:11:20 10° 2° (N) 11:11:54 435.225 FM
Oscar 19 24 May 11:18:44 11:21:52 16° 31° (NNE) 11:25:00 437.125 CW, 437.150 USB
Uribyol 2 24 May 11:19:10 11:22:15 16° 30° (NNE) 11:25:20 436.500 FM
AO-7 24 May 11:29:07 11:35:55 29° 347° (NNW) 11:42:44 29.400 - 29.500 MHz
Hamsat 24 May 11:31:55 11:34:38 17° 317° (NW) 11:37:22 145.90 MHz
HO-68 24 May 11:39:04 11:46:15 69° 108° (ESE) 11:53:24 435.675 MHz FM
OPAL 24 May 11:41:33 11:46:00 30° 96° (E) 11:50:23 ?
UOSAT-12 24 May 11:48:50 11:51:04 14° 116° (ESE) 11:53:19 437.025 FM, 437.400 FM
Oscar 16 24 May 11:56:55 12:01:00 24° 42° (NE) 12:05:05 437.025 USB, Beacon 2401.1428
Oscar 11 24 May 11:57:18 12:01:42 75° 106° (ESE) 12:06:05 145.825 FM, Beacon 2401.500 USB
PCSat 24 May 11:57:20 12:02:42 56° 349° (N) 12:08:05 145.825 MHz
JAS-1B 24 May 11:58:53 12:04:52 36° 316° (NW) 12:10:10 435.800 - 435.900 CW/SSB
Saudisat 1A 24 May 12:05:33 12:10:13 82° 19° (NNE) 12:14:48 436.775 MHz
AO-27 24 May 12:10:06 12:14:10 24° 42° (NE) 12:18:16 436.795 MHz FM
SO-50 24 May 12:15:23 12:20:08 85° 339° (NNW) 12:24:48 436.795 FM
ITAMSAT 1 24 May 12:16:10 12:20:19 25° 43° (NE) 12:24:29 435.822 SSB
TMSAT-1 24 May 12:25:19 12:27:10 12° 17° (NNE) 12:29:01 436.925 FM
Sapphire 24 May 12:30:41 12:36:01 53° 357° (N) 12:41:22 437.095 MHz 1200 baud AX-25 AFSK
JAS-2 24 May 12:39:39 12:47:00 71° 297° (WNW) 12:53:29 435.800 - 435.900 CW/SSB, 435.910 FM
Uosat F 24 May 12:42:22 12:45:01 15° 28° (NNE) 12:47:40 435.120 FM
Gurwin Techsat 1B 24 May 12:46:31 12:49:24 15° 27° (NNE) 12:52:18 435.225 FM
AO-Echo 24 May 12:46:56 12:50:04 18° 39° (NE) 12:53:12 ?
Oscar 19 24 May 12:55:18 13:00:07 39° 54° (NE) 13:04:57 437.125 CW, 437.150 USB
Uribyol 2 24 May 12:55:50 13:00:35 38° 53° (NE) 13:05:23 436.500 FM
AO-7 24 May 13:19:53 13:26:43 30° 14° (NNE) 13:33:34 29.400 - 29.500 MHz
OPAL 24 May 13:20:20 13:25:25 74° 298° (WNW) 13:30:24 ?
UOSAT-12 24 May 13:25:57 13:30:16 44° 138° (SE) 13:34:37 437.025 FM, 437.400 FM
HO-68 24 May 13:27:02 13:33:51 49° 311° (NW) 13:40:40 435.675 MHz FM
Oscar 11 24 May 13:33:55 13:37:39 28° 308° (NW) 13:41:23 145.825 FM, Beacon 2401.500 USB
Oscar 16 24 May 13:34:32 13:39:42 69° 65° (ENE) 13:44:54 437.025 USB, Beacon 2401.1428
PCSat 24 May 13:41:26 13:46:50 59° 14° (NNE) 13:52:14 145.825 MHz
Saudisat 1A 24 May 13:45:23 13:49:48 45° 222° (SW) 13:54:08 436.775 MHz
AO-27 24 May 13:47:53 13:53:02 68° 64° (ENE) 13:58:14 436.795 MHz FM
JAS-1B 24 May 13:49:15 13:53:50 19° 344° (NNW) 13:58:02 435.800 - 435.900 CW/SSB
ITAMSAT 1 24 May 13:54:02 13:59:13 73° 65° (ENE) 14:04:26 435.822 SSB
SO-50 24 May 13:56:22 14:01:04 68° 3° (N) 14:05:40 436.795 FM
TMSAT-1 24 May 14:01:27 14:05:30 23° 41° (NE) 14:09:34 436.925 FM
Sapphire 24 May 14:14:40 14:20:07 66° 22° (NNE) 14:25:33 437.095 MHz 1200 baud AX-25 AFSK
Uosat F 24 May 14:18:10 14:22:39 34° 51° (NE) 14:27:09 435.120 FM
Gurwin Techsat 1B 24 May 14:23:24 14:28:06 33° 50° (NE) 14:32:50 435.225 FM
AO-Echo 24 May 14:23:28 14:28:05 52° 62° (ENE) 14:32:40 ?
JAS-2 24 May 14:24:49 14:31:07 31° 322° (NW) 14:36:53 435.800 - 435.900 CW/SSB, 435.910 FM
Oscar 19 24 May 14:34:12 14:39:22 63° 256° (WSW) 14:44:34 437.125 CW, 437.150 USB
Uribyol 2 24 May 14:34:44 14:39:55 67° 255° (WSW) 14:45:10 436.500 FM
OPAL 24 May 14:59:37 15:03:45 26° 320° (NW) 15:07:50 ?
UOSAT-12 24 May 15:05:43 15:10:18 83° 340° (NNW) 15:14:56 437.025 FM, 437.400 FM
AO-7 24 May 15:10:10 15:17:59 47° 41° (NE) 15:25:50 29.400 - 29.500 MHz
Oscar 11 24 May 15:11:42 15:12:42 11° 330° (NNW) 15:13:43 145.825 FM, Beacon 2401.500 USB
HO-68 24 May 15:14:40 15:20:17 26° 336° (NNW) 15:25:55 435.675 MHz FM
Oscar 16 24 May 15:14:48 15:19:31 33° 267° (W) 15:24:14 437.025 USB, Beacon 2401.1428
PCSat 24 May 15:25:07 15:30:35 78° 219° (SW) 15:36:02 145.825 MHz
Saudisat 1A 24 May 15:26:07 15:28:34 14° 243° (WSW) 15:31:00 436.775 MHz
AO-27 24 May 15:28:19 15:33:00 33° 266° (W) 15:37:44 436.795 MHz FM
ITAMSAT 1 24 May 15:34:37 15:39:14 31° 267° (W) 15:43:52 435.822 SSB
SO-50 24 May 15:37:14 15:41:55 82° 207° (SSW) 15:46:29 436.795 FM
JAS-1B 24 May 15:37:41 15:42:16 18° 11° (N) 15:46:28 435.800 - 435.900 CW/SSB
TMSAT-1 24 May 15:39:28 15:44:42 63° 63° (ENE) 15:49:58 436.925 FM
Uosat F 24 May 15:56:13 16:01:14 72° 253° (WSW) 16:06:17 435.120 FM
Sapphire 24 May 15:58:17 16:03:39 59° 226° (SW) 16:08:59 437.095 MHz 1200 baud AX-25 AFSK
Gurwin Techsat 1B 24 May 16:02:27 16:07:47 79° 252° (WSW) 16:13:10 435.225 FM
AO-Echo 24 May 16:02:39 16:07:07 39° 263° (W) 16:11:33 ?
JAS-2 24 May 16:09:15 16:14:14 20° 347° (NNW) 16:18:58 435.800 - 435.900 CW/SSB, 435.910 FM
Oscar 19 24 May 16:16:27 16:19:48 17° 278° (W) 16:23:10 437.125 CW, 437.150 USB
Uribyol 2 24 May 16:16:56 16:20:27 18° 277° (W) 16:24:00 436.500 FM
RS-15 24 May 16:35:57 16:45:49 33° 109° (ESE) 16:55:18 29.354 - 29.394 USB, Beacon 29.352 USB
OPAL 24 May 16:38:49 16:41:17 14° 344° (NNW) 16:43:44 ?
UOSAT-12 24 May 16:46:12 16:50:47 68° 4° (N) 16:55:23 437.025 FM, 437.400 FM
HO-68 24 May 17:01:04 17:06:02 21° 2° (N) 17:11:02 435.675 MHz FM
AO-7 24 May 17:02:05 17:10:26 82° 246° (WSW) 17:18:52 29.400 - 29.500 MHz
PCSat 24 May 17:08:53 17:13:27 28° 242° (WSW) 17:18:00 145.825 MHz
SO-50 24 May 17:18:05 17:22:10 32° 229° (SW) 17:26:10 436.795 FM
TMSAT-1 24 May 17:20:05 17:25:00 37° 265° (W) 17:29:56 436.925 FM
JAS-1B 24 May 17:24:34 17:31:04 29° 37° (NE) 17:36:44 435.800 - 435.900 CW/SSB
Uosat F 24 May 17:37:26 17:40:58 19° 275° (W) 17:44:30 435.120 FM
Sapphire 24 May 17:42:22 17:46:11 20° 248° (WSW) 17:50:00 437.095 MHz 1200 baud AX-25 AFSK
Gurwin Techsat 1B 24 May 17:44:36 17:48:39 22° 275° (W) 17:52:44 435.225 FM
Hamsat 24 May 17:48:52 17:52:16 24° 50° (NE) 17:55:43 145.90 MHz
JAS-2 24 May 17:51:55 17:57:00 20° 13° (NNE) 18:01:51 435.800 - 435.900 CW/SSB, 435.910 FM
OPAL 24 May 18:16:27 18:18:25 12° 8° (N) 18:20:23 ?
UOSAT-12 24 May 18:26:33 18:31:10 80° 207° (SSW) 18:35:47 437.025 FM, 437.400 FM
RS-15 24 May 18:44:49 18:56:29 69° 137° (SE) 19:07:38 29.354 - 29.394 USB, Beacon 29.352 USB
HO-68 24 May 18:46:03 18:51:52 28° 28° (NNE) 18:57:41 435.675 MHz FM
SO-67 24 May 18:47:46 18:50:39 23° 55° (NE) 18:53:33 435.3500 MHz FM
AO-7 24 May 18:57:15 19:04:29 32° 271° (W) 19:11:48 29.400 - 29.500 MHz
STRAND 1 24 May 18:58:05 19:01:56 21° 86° (E) 19:05:46 ?
JAS-1B 24 May 19:12:37 19:20:51 65° 60° (ENE) 19:27:44 435.800 - 435.900 CW/SSB
Hamsat 24 May 19:23:41 19:27:57 89° 252° (WSW) 19:32:17 145.90 MHz
JAS-2 24 May 19:33:33 19:40:07 31° 37° (NE) 19:46:23 435.800 - 435.900 CW/SSB, 435.910 FM
OPAL 24 May 19:52:10 19:55:45 20° 31° (NNE) 19:59:19 ?
Oscar 11 24 May 19:53:27 19:56:05 16° 40° (NE) 19:58:43 145.825 FM, Beacon 2401.500 USB
UOSAT-12 24 May 20:06:55 20:10:58 31° 230° (SW) 20:15:00 437.025 FM, 437.400 FM
SO-67 24 May 20:20:17 20:23:51 68° 256° (WSW) 20:27:27 435.3500 MHz FM
HO-68 24 May 20:31:32 20:38:28 57° 53° (NE) 20:45:26 435.675 MHz FM
STRAND 1 24 May 20:36:49 20:42:00 77° 108° (ESE) 20:47:10 ?
RS-15 24 May 20:57:12 21:08:58 82° 347° (NNW) 21:20:11 29.354 - 29.394 USB, Beacon 29.352 USB
Hamsat 24 May 21:01:33 21:04:41 20° 274° (W) 21:07:51 145.90 MHz
JAS-1B 24 May 21:03:35 21:11:47 50° 262° (W) 21:18:42 435.800 - 435.900 CW/SSB
JAS-2 24 May 21:16:23 21:24:09 65° 60° (ENE) 21:31:36 435.800 - 435.900 CW/SSB, 435.910 FM
Oscar 11 24 May 21:27:19 21:31:30 49° 62° (ENE) 21:35:44 145.825 FM, Beacon 2401.500 USB
OPAL 24 May 21:28:49 21:33:45 47° 54° (NE) 21:38:39 ?
SO-67 24 May 21:56:27 21:58:03 12° 277° (W) 21:59:39 435.3500 MHz FM
STRAND 1 24 May 22:16:22 22:20:56 33° 310° (NW) 22:25:29 ?
HO-68 24 May 22:19:17 22:26:18 58° 257° (WSW) 22:33:23 435.675 MHz FM

Developed and maintained by Chris Peat, Heavens-Above GmbH. Please read the updated FAQ before sending e-mail. Imprint. DLR
